N4OGP-WX Weather Reports


Display with metric or nautical units.
time (UTC)temp
F
wind
direction
speed
MPH
gust
MPH
rain 1hr
in
rain 24hr
in
rain mn
in
humidity
%
barometer
mb
20260504024255 75 341 0.0 0.0 0.00 0.27 0.27 42 1020.4
20260504024125 75 347 0.0 1.0 0.00 0.27 0.27 42 1020.4
20260504024025 65 319 0.0 1.0 0.00 0.27 0.27 70 1015.5
20260504023925 65 280 0.0 1.0 0.00 0.27 0.27 70 1015.5
20260504023825 75 242 0.0 0.0 0.00 0.27 0.27 42 1020.4
20260504023725 75 242 0.0 0.0 0.00 0.27 0.27 42 1020.4
20260504023625 65 241 0.0 0.0 0.00 0.27 0.27 69 1015.5
20260504023525 65 241 0.0 0.0 0.00 0.27 0.27 69 1015.5
20260504023425 75 242 0.0 0.0 0.00 0.27 0.27 42 1020.4
20260504023325 65 241 0.0 0.0 0.00 0.27 0.27 69 1015.5
20260504023225 65 279 0.0 0.0 0.00 0.27 0.27 69 1015.5
20260504023125 65 321 0.0 1.0 0.00 0.27 0.27 68 1015.4
20260504022955 65 336 0.0 0.0 0.00 0.27 0.27 68 1015.4
20260504022855 65 336 0.0 0.0 0.00 0.27 0.27 69 1015.4
20260504022755 75 333 0.0 0.0 0.00 0.27 0.27 42 1020.4
20260504022655 65 340 0.0 2.0 0.00 0.27 0.27 68 1015.4
20260504022555 75 348 0.0 0.0 0.00 0.27 0.27 42 1020.4
20260504022455 75 348 0.0 0.0 0.00 0.27 0.27 42 1020.4
20260504022325 66 348 0.0 0.0 0.00 0.27 0.27 68 1015.4
20260504022225 66 348 0.0 0.0 0.00 0.27 0.27 68 1015.4
20260504022125 66 348 0.0 0.0 0.00 0.27 0.27 68 1015.4
20260504022025 66 348 0.0 0.0 0.00 0.27 0.27 68 1015.4
20260504021925 75 348 0.0 2.0 0.00 0.27 0.27 42 1020.4
20260504021825 66 342 0.0 0.0 0.00 0.27 0.27 68 1015.4
20260504021655 75 333 0.0 1.0 0.00 0.27 0.27 42 1020.4
20260504021555 75 295 0.0 1.0 0.00 0.27 0.27 42 1020.4
20260504021455 66 291 0.0 0.0 0.00 0.27 0.27 67 1015.3
20260504021355 66 291 0.0 0.0 0.00 0.27 0.27 67 1015.3
20260504021255 75 301 0.0 1.0 0.00 0.27 0.27 42 1020.4
20260504021155 66 354 0.0 0.0 0.00 0.27 0.27 67 1015.3
20260504021055 66 354 0.0 0.0 0.00 0.27 0.27 67 1015.3
20260504020955 75 345 0.0 2.0 0.00 0.27 0.27 42 1020.4
20260504020855 66 308 0.0 1.0 0.00 0.27 0.27 67 1015.2
20260504020755 66 301 0.0 0.0 0.00 0.27 0.27 67 1015.2
20260504020655 66 301 0.0 0.0 0.00 0.27 0.27 67 1015.2
20260504020555 66 262 0.0 1.0 0.00 0.27 0.27 67 1015.1
20260504020455 66 248 0.0 0.0 0.00 0.27 0.27 66 1015.1
20260504020325 75 248 0.0 1.0 0.00 0.27 0.27 42 1020.4
20260504020225 67 325 0.0 0.0 0.00 0.27 0.27 66 1015.1
20260504020125 67 332 0.0 0.0 0.00 0.27 0.27 66 1015.1
20260504020025 75 332 0.0 0.0 0.00 0.27 0.27 42 1020.4
20260504015925 75 332 0.0 0.0 0.00 0.27 0.27 42 1020.4
20260504015755 67 290 0.0 1.0 0.00 0.27 0.27 65 1015.1
20260504015655 67 262 0.0 0.0 0.00 0.27 0.27 65 1015.2
20260504015555 75 332 0.0 1.0 0.00 0.27 0.27 42 1020.4
20260504015455 67 327 0.0 0.0 0.00 0.27 0.27 65 1015.2
20260504015355 75 326 0.0 1.0 0.00 0.27 0.27 42 1020.4
20260504015255 75 315 0.0 1.0 0.00 0.27 0.27 42 1020.4
20260504015155 75 294 0.0 2.0 0.00 0.27 0.27 42 1020.4
20260504015055 67 310 1.0 1.0 0.00 0.27 0.27 64 1015.2
20260504014925 67 291 0.0 2.0 0.00 0.27 0.27 64 1015.2
20260504014825 67 354 0.0 1.0 0.00 0.27 0.27 64 1015.1
20260504014725 75 334 0.0 1.0 0.00 0.27 0.27 42 1020.4
20260504014625 75 277 0.0 2.0 0.00 0.27 0.27 42 1020.4
20260504014525 67 309 1.0 1.0 0.00 0.27 0.27 64 1015.0
20260504014425 75 341 1.0 2.0 0.00 0.27 0.27 42 1020.4
20260504014325 75 321 0.0 2.0 0.00 0.27 0.27 42 1020.4
20260504014225 67 316 0.0 1.0 0.00 0.27 0.27 64 1015.0
20260504014125 67 320 1.0 1.0 0.00 0.27 0.27 63 1015.0
20260504014025 75 302 1.0 2.0 0.00 0.27 0.27 42 1020.4
20260504013925 75 241 0.0 2.0 0.00 0.27 0.27 42 1020.4
20260504013825 75 193 0.0 0.0 0.00 0.27 0.27 42 1020.4
20260504013725 68 189 0.0 1.0 0.00 0.27 0.27 63 1015.0
20260504013555 68 328 0.0 0.0 0.00 0.27 0.27 63 1015.0
20260504013455 68 319 0.0 1.0 0.00 0.27 0.27 62 1015.0
20260504013355 75 305 0.0 1.0 0.00 0.27 0.27 42 1020.4
20260504013255 75 302 1.0 1.0 0.00 0.27 0.27 42 1020.4
20260504013155 75 317 1.0 2.0 0.00 0.27 0.27 42 1020.4
20260504013055 68 293 1.0 2.0 0.00 0.27 0.27 62 1015.0
20260504012955 68 270 0.0 2.0 0.00 0.27 0.27 62 1015.0
20260504012855 68 290 0.0 2.0 0.00 0.27 0.27 62 1015.0
20260504012725 68 298 0.0 1.0 0.00 0.27 0.27 62 1015.0
20260504012625 75 286 0.0 2.0 0.00 0.27 0.27 42 1020.4
20260504012525 75 289 1.0 1.0 0.00 0.27 0.27 42 1020.4
20260504012425 68 297 0.0 2.0 0.00 0.27 0.27 61 1015.0
20260504012325 68 292 1.0 1.0 0.00 0.27 0.27 61 1015.0
20260504012225 68 292 1.0 3.0 0.00 0.27 0.27 61 1015.0
20260504012125 75 272 1.0 2.0 0.00 0.27 0.27 42 1020.4
20260504012025 68 310 1.0 2.0 0.00 0.27 0.27 61 1014.9
20260504011925 75 303 1.0 3.0 0.00 0.27 0.27 42 1020.4
20260504011825 75 328 1.0 1.0 0.00 0.27 0.27 42 1020.4
20260504011725 68 331 1.0 2.0 0.00 0.27 0.27 60 1014.9
20260504011625 75 272 1.0 2.0 0.00 0.27 0.27 42 1020.4
20260504011525 68 304 0.0 2.0 0.00 0.27 0.27 60 1014.9
20260504011425 68 298 0.0 1.0 0.00 0.27 0.27 60 1014.9
20260504011325 75 272 1.0 2.0 0.00 0.27 0.27 42 1020.4
20260504011225 68 297 1.0 2.0 0.00 0.27 0.27 60 1014.9
20260504011125 75 294 0.0 5.0 0.00 0.27 0.27 42 1020.4
20260504011025 68 310 0.0 1.0 0.00 0.27 0.27 59 1014.9
20260504010925 75 331 1.0 1.0 0.00 0.27 0.27 42 1020.4
20260504010825 75 334 0.0 6.0 0.00 0.27 0.27 42 1020.4
20260504010725 69 9 0.0 0.0 0.00 0.27 0.27 59 1014.8
20260504010625 69 299 0.0 2.0 0.00 0.27 0.27 59 1014.8
20260504010525 69 226 1.0 2.0 0.00 0.27 0.27 59 1014.8
20260504010425 69 266 0.0 2.0 0.00 0.27 0.27 59 1014.8
20260504010325 75 209 0.0 0.0 0.00 0.27 0.27 42 1020.4
20260504010225 75 253 1.0 1.0 0.00 0.27 0.27 42 1020.4
20260504010125 75 315 1.0 3.0 0.00 0.27 0.27 42 1020.4
20260504010025 69 307 0.0 3.0 0.00 0.27 0.27 59 1014.8
20260504005925 69 298 1.0 2.0 0.00 0.27 0.27 58 1014.8
20260504005825 75 318 0.0 3.0 0.00 0.27 0.27 42 1020.4
20260504005725 75 232 0.0 1.0 0.00 0.27 0.27 42 1020.4
20260504005625 75 341 0.0 1.0 0.00 0.27 0.27 42 1020.4
20260504005525 69 324 0.0 1.0 0.00 0.27 0.27 58 1014.7
20260504005425 69 317 0.0 1.0 0.00 0.27 0.27 58 1014.7
20260504005325 69 334 1.0 2.0 0.00 0.27 0.27 58 1014.7
20260504005225 69 249 1.0 3.0 0.00 0.27 0.27 58 1014.7
20260504005055 69 299 1.0 6.0 0.00 0.27 0.27 58 1014.7
20260504004955 69 277 1.0 3.0 0.00 0.27 0.27 58 1014.7
20260504004855 75 235 0.0 2.0 0.00 0.27 0.27 42 1020.4
20260504004755 75 324 0.0 1.0 0.00 0.27 0.27 42 1020.4
20260504004625 75 349 1.0 2.0 0.00 0.27 0.27 42 1020.4
20260504004525 75 252 1.0 2.0 0.00 0.27 0.27 42 1020.4
20260504004355 69 182 0.0 3.0 0.00 0.27 0.27 56 1014.8
20260504004255 75 279 0.0 3.0 0.00 0.27 0.27 42 1020.4
20260504004155 75 308 1.0 1.0 0.00 0.27 0.27 42 1020.4
20260504004055 75 212 2.0 3.0 0.00 0.27 0.27 42 1020.4
20260504003955 70 291 1.0 3.0 0.00 0.27 0.27 56 1014.8
20260504003855 75 286 0.0 2.0 0.00 0.27 0.27 42 1020.4
20260504003755 70 289 0.0 1.0 0.00 0.27 0.27 56 1014.8
20260504003625 75 305 0.0 1.0 0.00 0.27 0.27 42 1020.4
20260504003525 75 326 0.0 1.0 0.00 0.27 0.27 42 1020.4
20260504003425 70 306 0.0 1.0 0.00 0.27 0.27 55 1014.8
20260504003255 70 222 1.0 3.0 0.00 0.27 0.27 55 1014.8
20260504003155 70 260 1.0 3.0 0.00 0.27 0.27 54 1014.8
20260504003055 70 301 1.0 2.0 0.00 0.27 0.27 54 1014.8
20260504002955 75 315 1.0 3.0 0.00 0.27 0.27 42 1020.4
20260504002825 70 302 1.0 3.0 0.00 0.27 0.27 54 1014.8
20260504002725 75 295 1.0 3.0 0.00 0.27 0.27 42 1020.4
20260504002625 75 312 1.0 3.0 0.00 0.27 0.27 42 1020.4
20260504002525 75 305 0.0 1.0 0.00 0.27 0.27 42 1020.4
20260504002425 70 247 0.0 1.0 0.00 0.27 0.27 55 1014.9
20260504002325 70 336 0.0 1.0 0.00 0.27 0.27 55 1014.9
20260504002225 70 324 0.0 1.0 0.00 0.27 0.27 55 1014.9
20260504002125 70 313 0.0 0.0 0.00 0.27 0.27 54 1014.9
20260504002025 71 313 0.0 0.0 0.00 0.27 0.27 54 1015.0
20260504001925 75 313 0.0 0.0 0.00 0.27 0.27 42 1020.4
20260504001825 71 314 1.0 1.0 0.00 0.27 0.27 54 1015.0
20260504001725 75 339 1.0 3.0 0.00 0.27 0.27 42 1020.4
20260504001555 75 299 1.0 3.0 0.00 0.27 0.27 42 1020.4
20260504001455 71 302 1.0 3.0 0.00 0.27 0.27 53 1015.0
20260504001355 71 295 1.0 3.0 0.00 0.27 0.27 54 1015.0
20260504001255 71 261 0.0 1.0 0.00 0.27 0.27 53 1015.0
20260504001155 75 304 1.0 1.0 0.00 0.27 0.27 42 1020.4
20260504001055 75 232 2.0 3.0 0.00 0.27 0.27 42 1020.4
20260504000955 75 302 1.0 6.0 0.00 0.27 0.27 42 1020.4
20260504000825 71 309 0.0 2.0 0.00 0.27 0.27 52 1015.0
20260504000725 71 299 1.0 2.0 0.00 0.27 0.27 52 1015.0
20260504000625 71 317 1.0 2.0 0.00 0.27 0.27 52 1015.0
20260504000525 75 189 2.0 3.0 0.00 0.27 0.27 42 1020.4
20260504000425 71 223 2.0 3.0 0.00 0.27 0.27 51 1015.0
20260504000325 72 295 2.0 5.0 0.00 0.27 0.27 51 1015.0
20260504000226 75 253 1.0 5.0 0.00 0.27 0.27 42 1020.4
20260504000125 72 337 0.0 2.0 0.00 0.27 0.27 50 1015.1
20260504000025 72 128 0.0 1.0 0.00 0.27 0.27 50 1015.0
20260503235925 75 145 1.0 2.0 0.00 0.27 0.27 42 1020.4
20260503235825 75 271 1.0 3.0 0.00 0.27 0.27 42 1020.4
20260503235725 72 196 1.0 2.0 0.00 0.27 0.27 49 1015.1
20260503235625 75 78 0.0 2.0 0.00 0.27 0.27 42 1020.4
20260503235525 75 274 1.0 2.0 0.00 0.27 0.27 42 1020.4
20260503235425 73 159 0.0 3.0 0.00 0.27 0.27 48 1015.1
20260503235325 75 308 2.0 3.0 0.00 0.27 0.27 42 1020.4
20260503235225 73 293 1.0 3.0 0.00 0.27 0.27 47 1015.1
20260503235125 73 259 0.0 2.0 0.00 0.27 0.27 47 1015.1
20260503235025 75 305 1.0 0.0 0.00 0.27 0.27 42 1020.4
20260503234925 73 315 0.0 3.0 0.00 0.27 0.27 48 1015.1
20260503234825 73 285 0.0 2.0 0.00 0.27 0.27 47 1015.1
20260503234725 75 344 0.0 1.0 0.00 0.27 0.27 42 1020.4
20260503234625 75 243 1.0 1.0 0.00 0.27 0.27 42 1020.4
20260503234525 74 319 2.0 2.0 0.00 0.27 0.27 47 1015.1
20260503234425 75 276 1.0 3.0 0.00 0.27 0.27 42 1020.4
20260503234325 75 185 0.0 3.0 0.00 0.27 0.27 42 1020.4
20260503234225 74 304 1.0 1.0 0.00 0.27 0.27 47 1015.1
20260503234125 75 5 0.0 2.0 0.00 0.27 0.27 42 1020.4
20260503234025 75 135 1.0 1.0 0.00 0.27 0.27 42 1020.4
20260503233925 74 138 2.0 3.0 0.00 0.27 0.27 46 1015.2
20260503233825 75 312 1.0 3.0 0.00 0.27 0.27 42 1020.4
20260503233725 74 303 1.0 3.0 0.00 0.27 0.27 47 1015.1
20260503233625 75 176 1.0 2.0 0.00 0.27 0.27 42 1020.4
20260503233525 75 175 0.0 2.0 0.00 0.27 0.27 42 1020.4
20260503233425 75 172 1.0 2.0 0.00 0.27 0.27 46 1015.1
20260503233325 75 172 1.0 2.0 0.00 0.27 0.27 45 1015.1
20260503233225 75 177 0.0 2.0 0.00 0.27 0.27 42 1020.4
20260503233125 75 158 2.0 2.0 0.00 0.27 0.27 42 1020.4
20260503233025 75 189 1.0 5.0 0.00 0.27 0.27 42 1020.4
20260503232925 75 314 2.0 3.0 0.00 0.27 0.27 42 1020.4
20260503232825 76 336 1.0 3.0 0.00 0.27 0.27 44 1015.2
20260503232725 76 281 1.0 3.0 0.00 0.27 0.27 43 1015.2
20260503232625 75 264 1.0 3.0 0.00 0.27 0.27 42 1020.4
20260503232455 75 253 0.0 2.0 0.00 0.27 0.27 42 1020.4
20260503232355 77 278 0.0 2.0 0.00 0.27 0.27 40 1015.2
20260503232255 75 270 1.0 1.0 0.00 0.27 0.27 42 1020.4
20260503232155 75 224 1.0 3.0 0.00 0.27 0.27 42 1020.4
20260503232055 77 333 0.0 2.0 0.00 0.27 0.27 43 1015.2
20260503231955 75 162 1.0 0.0 0.00 0.27 0.27 42 1020.4
20260503231855 75 147 1.0 3.0 0.00 0.27 0.27 42 1020.4
20260503231755 77 134 0.0 3.0 0.00 0.27 0.27 41 1015.2
20260503231655 77 25 0.0 0.0 0.00 0.27 0.27 40 1015.2
20260503231555 75 16 0.0 1.0 0.00 0.27 0.27 42 1020.4
20260503231455 77 11 2.0 2.0 0.00 0.27 0.27 36 1015.3
20260503231355 77 328 1.0 8.0 0.00 0.27 0.27 34 1015.3
20260503231255 77 236 2.0 2.0 0.00 0.27 0.27 34 1015.3
20260503231155 78 238 3.0 5.0 0.00 0.27 0.27 33 1015.1
20260503231055 75 244 2.0 5.0 0.00 0.27 0.27 42 1020.4
20260503230955 75 254 2.0 5.0 0.00 0.27 0.27 42 1020.4
20260503230855 78 189 2.0 3.0 0.00 0.27 0.27 35 1015.1
20260503230755 75 199 1.0 5.0 0.00 0.27 0.27 42 1020.4
20260503230655 75 230 1.0 3.0 0.00 0.27 0.27 42 1020.4
20260503230555 75 211 1.0 2.0 0.00 0.27 0.27 42 1020.4
20260503230455 78 192 1.0 3.0 0.00 0.27 0.27 34 1015.2
20260503230355 75 238 1.0 2.0 0.00 0.27 0.27 42 1020.4
20260503230255 75 144 1.0 2.0 0.00 0.27 0.27 42 1020.4
20260503230155 79 94 2.0 3.0 0.00 0.27 0.27 36 1015.1
20260503230055 75 172 1.0 5.0 0.00 0.27 0.27 42 1020.4
20260503225955 79 83 2.0 3.0 0.00 0.27 0.27 34 1015.4
20260503225855 79 79 0.0 3.0 0.00 0.27 0.27 35 1015.2
20260503225755 79 327 1.0 2.0 0.00 0.27 0.27 36 1015.3
20260503225655 75 59 0.0 2.0 0.00 0.27 0.27 42 1020.4
20260503225555 79 139 1.0 0.0 0.00 0.27 0.27 36 1015.3
20260503225455 75 141 1.0 3.0 0.00 0.27 0.27 42 1020.4
20260503225355 79 179 1.0 3.0 0.00 0.27 0.27 36 1015.3
20260503225255 79 186 1.0 2.0 0.00 0.27 0.27 38 1015.2
20260503225155 78 160 0.0 3.0 0.00 0.27 0.27 39 1015.3
20260503225025 75 336 0.0 1.0 0.00 0.27 0.27 42 1020.4
20260503224925 78 338 0.0 1.0 0.00 0.27 0.27 40 1015.2
20260503224825 78 63 0.0 1.0 0.00 0.27 0.27 40 1015.2
20260503224725 75 87 0.0 0.0 0.00 0.27 0.27 42 1020.4
20260503224625 78 89 1.0 2.0 0.00 0.27 0.27 40 1015.3
20260503224455 78 224 0.0 2.0 0.00 0.27 0.27 40 1015.2
20260503224355 78 246 0.0 2.0 0.00 0.27 0.27 41 1015.2
20260503224255 78 197 0.0 1.0 0.00 0.27 0.27 41 1015.1
20260503224155 78 328 1.0 1.0 0.00 0.27 0.27 41 1015.1
20260503224055 75 9 1.0 2.0 0.00 0.27 0.27 42 1020.4
20260503223955 78 357 2.0 2.0 0.00 0.27 0.27 41 1015.1
20260503223855 75 316 2.0 8.0 0.00 0.27 0.27 42 1020.4
20260503223755 78 357 1.0 8.0 0.00 0.27 0.27 42 1015.1
20260503223654 75 128 2.0 5.0 0.00 0.27 0.27 42 1020.4
20260503223555 75 66 2.0 3.0 0.00 0.27 0.27 42 1020.4
20260503223455 75 58 2.0 3.0 0.00 0.27 0.27 42 1020.4
20260503223354 75 60 1.0 3.0 0.00 0.27 0.27 42 1020.4
20260503223254 79 49 0.0 2.0 0.00 0.27 0.27 39 1015.1
20260503223125 80 343 1.0 1.0 0.00 0.27 0.27 39 1015.1
20260503223025 75 351 0.0 2.0 0.00 0.27 0.27 42 1020.4
20260503222855 75 348 1.0 1.0 0.00 0.27 0.27 42 1020.4
20260503222755 75 52 1.0 3.0 0.00 0.27 0.27 42 1020.4
20260503222655 80 250 1.0 3.0 0.00 0.27 0.27 40 1015.2
20260503222554 80 105 1.0 2.0 0.00 0.27 0.27 38 1015.2
20260503222425 75 75 1.0 3.0 0.00 0.27 0.27 42 1020.4
20260503222325 81 29 0.0 6.0 0.00 0.27 0.27 33 1015.2
20260503222224 75 344 0.0 1.0 0.00 0.27 0.27 42 1020.4
20260503222125 81 358 0.0 1.0 0.00 0.27 0.27 33 1015.1
20260503222024 75 69 1.0 2.0 0.00 0.27 0.27 42 1020.4
20260503221924 81 69 0.0 3.0 0.00 0.27 0.27 34 1015.2
20260503221824 75 65 0.0 1.0 0.00 0.27 0.27 42 1020.4
20260503221724 81 53 0.0 0.0 0.00 0.27 0.27 33 1015.2
20260503221624 75 61 1.0 1.0 0.00 0.27 0.27 42 1020.4
20260503221524 75 60 1.0 3.0 0.00 0.27 0.27 42 1020.4
20260503221424 82 212 1.0 2.0 0.00 0.27 0.27 34 1015.1
20260503221324 75 304 1.0 3.0 0.00 0.27 0.27 42 1020.4
20260503221224 82 27 1.0 3.0 0.00 0.27 0.27 33 1015.2
20260503221124 75 309 0.0 2.0 0.00 0.27 0.27 42 1020.4
20260503221024 75 278 0.0 1.0 0.00 0.27 0.27 42 1020.4
20260503220924 75 21 0.0 2.0 0.00 0.27 0.27 42 1020.4
20260503220824 82 108 0.0 2.0 0.00 0.27 0.27 34 1015.2
20260503220724 75 58 0.0 1.0 0.00 0.27 0.27 42 1020.4
20260503220624 82 348 0.0 2.0 0.00 0.27 0.27 34 1015.3
20260503220524 82 273 1.0 1.0 0.00 0.27 0.27 34 1015.3
20260503220424 75 320 0.0 3.0 0.00 0.27 0.27 42 1020.4
20260503220324 81 7 1.0 2.0 0.00 0.27 0.27 34 1015.3
20260503220224 75 7 1.0 2.0 0.00 0.27 0.27 42 1020.4
20260503220124 75 288 1.0 3.0 0.00 0.27 0.27 42 1020.4
20260503220024 81 209 1.0 2.0 0.00 0.27 0.27 34 1015.3
20260503215924 81 250 1.0 2.0 0.00 0.27 0.27 35 1015.3
20260503215754 81 262 1.0 0.0 0.00 0.27 0.27 34 1015.3
20260503215654 75 279 0.0 2.0 0.00 0.27 0.27 42 1020.4
20260503215554 81 294 0.0 1.0 0.00 0.27 0.27 34 1015.3
20260503215454 81 339 1.0 0.0 0.00 0.27 0.27 34 1015.4
20260503215354 75 310 0.0 3.0 0.00 0.27 0.27 42 1020.4
20260503215254 81 270 1.0 1.0 0.00 0.27 0.27 36 1015.4
20260503215154 75 344 0.0 2.0 0.00 0.27 0.27 42 1020.4
20260503215024 80 276 0.0 1.0 0.00 0.27 0.27 34 1015.4
20260503214924 75 154 1.0 2.0 0.00 0.27 0.27 42 1020.4
20260503214824 75 281 1.0 2.0 0.00 0.27 0.27 42 1020.4
20260503214724 80 309 2.0 3.0 0.00 0.27 0.27 34 1015.4
20260503214624 80 346 1.0 3.0 0.00 0.27 0.27 35 1015.4
20260503214524 80 330 2.0 2.0 0.00 0.27 0.27 34 1015.4
20260503214424 80 312 1.0 3.0 0.00 0.27 0.27 34 1015.4
20260503214254 81 267 2.0 3.0 0.00 0.27 0.27 34 1015.5
20260503214154 75 305 1.0 3.0 0.00 0.27 0.27 42 1020.4
20260503214054 80 267 1.0 3.0 0.00 0.27 0.27 34 1015.4
20260503213955 75 334 0.0 2.0 0.00 0.27 0.27 42 1020.4
20260503213854 75 238 1.0 0.0 0.00 0.27 0.27 42 1020.4
20260503213754 75 218 1.0 3.0 0.00 0.27 0.27 42 1020.4
20260503213624 75 188 0.0 3.0 0.00 0.27 0.27 42 1020.4
20260503213524 80 29 0.0 2.0 0.00 0.27 0.27 35 1015.5
20260503213424 80 23 1.0 2.0 0.00 0.27 0.27 34 1015.4
20260503213324 80 65 2.0 2.0 0.00 0.27 0.27 34 1015.5
20260503213224 75 282 2.0 5.0 0.00 0.27 0.27 42 1020.4
20260503213124 75 270 2.0 3.0 0.00 0.27 0.27 42 1020.4
20260503213024 81 262 1.0 3.0 0.00 0.27 0.27 34 1015.5
20260503212924 75 272 1.0 3.0 0.00 0.27 0.27 42 1020.4
20260503212824 75 292 2.0 2.0 0.00 0.27 0.27 42 1020.4
20260503212724 81 273 1.0 5.0 0.00 0.27 0.27 34 1015.5
20260503212624 75 295 0.0 3.0 0.00 0.27 0.27 42 1020.4
20260503212524 80 320 1.0 2.0 0.00 0.27 0.27 34 1015.6
20260503212424 75 324 1.0 2.0 0.00 0.27 0.27 42 1020.4
20260503212324 81 212 1.0 6.0 0.00 0.27 0.27 34 1015.5
20260503212154 80 321 1.0 3.0 0.00 0.27 0.27 35 1015.6
20260503212054 80 353 1.0 3.0 0.00 0.27 0.27 35 1015.6
20260503211954 81 278 1.0 2.0 0.00 0.27 0.27 34 1015.6
20260503211854 81 253 1.0 2.0 0.00 0.27 0.27 33 1015.6
20260503211754 75 250 1.0 2.0 0.00 0.27 0.27 42 1020.4
20260503211654 81 228 1.0 3.0 0.00 0.27 0.27 34 1015.7
20260503211554 75 356 2.0 3.0 0.00 0.27 0.27 42 1020.4
20260503211454 75 287 2.0 5.0 0.00 0.27 0.27 42 1020.4
20260503211354 81 258 2.0 5.0 0.00 0.27 0.27 33 1015.7
20260503211224 75 294 2.0 3.0 0.00 0.27 0.27 42 1020.4
20260503211054 81 311 1.0 2.0 0.00 0.27 0.27 34 1015.7
20260503210954 75 336 1.0 2.0 0.00 0.27 0.27 42 1020.4
20260503210824 81 278 0.0 2.0 0.00 0.27 0.27 34 1015.7
20260503210724 81 346 0.0 2.0 0.00 0.27 0.27 33 1015.7
20260503210624 81 235 1.0 1.0 0.00 0.27 0.27 32 1015.6
20260503210454 81 351 1.0 3.0 0.00 0.27 0.27 32 1015.7
20260503210324 81 49 1.0 3.0 0.00 0.27 0.27 33 1015.8
20260503210154 75 338 0.0 2.0 0.00 0.27 0.27 42 1020.4
20260503210054 80 322 1.0 2.0 0.00 0.27 0.27 34 1015.8
20260503205954 75 325 0.0 3.0 0.00 0.27 0.27 42 1020.4
20260503205824 75 317 1.0 1.0 0.00 0.27 0.27 42 1020.4
20260503205724 75 151 1.0 3.0 0.00 0.27 0.27 42 1020.4
20260503205624 80 289 1.0 3.0 0.00 0.27 0.27 33 1015.7
20260503205524 81 306 1.0 2.0 0.00 0.27 0.27 33 1015.8
20260503205424 75 261 2.0 3.0 0.00 0.27 0.27 42 1020.4
20260503205324 75 281 2.0 3.0 0.00 0.27 0.27 42 1020.4
20260503205224 81 284 1.0 3.0 0.00 0.27 0.27 33 1015.9
20260503205124 75 280 2.0 5.0 0.00 0.27 0.27 42 1020.4
20260503205024 75 310 1.0 5.0 0.00 0.27 0.27 42 1020.4
20260503204924 81 342 1.0 3.0 0.00 0.27 0.27 34 1015.9
20260503204824 75 303 1.0 3.0 0.00 0.27 0.27 42 1020.4
20260503204724 81 344 1.0 2.0 0.00 0.27 0.27 34 1015.9
20260503204624 75 322 0.0 3.0 0.00 0.27 0.27 42 1020.4
20260503204524 75 96 1.0 1.0 0.00 0.27 0.27 42 1020.4
20260503204424 75 270 1.0 1.0 0.00 0.27 0.27 42 1020.4
20260503204324 81 270 1.0 3.0 0.00 0.27 0.27 34 1015.9
20260503204224 75 295 1.0 2.0 0.00 0.27 0.27 42 1020.4
20260503204124 81 158 2.0 5.0 0.00 0.27 0.27 33 1016.0
20260503204024 75 16 2.0 3.0 0.00 0.27 0.27 42 1020.4
20260503203924 75 43 1.0 5.0 0.00 0.27 0.27 42 1020.4
20260503203824 75 7 1.0 2.0 0.00 0.27 0.27 42 1020.4
20260503203724 75 7 0.0 2.0 0.00 0.27 0.27 42 1020.4
20260503203624 75 329 1.0 2.0 0.00 0.27 0.27 42 1020.4
20260503203524 81 265 0.0 2.0 0.00 0.27 0.27 34 1016.1
20260503203424 81 334 0.0 2.0 0.00 0.27 0.27 34 1016.0
20260503203324 81 301 1.0 1.0 0.00 0.27 0.27 36 1016.0
20260503203224 80 347 0.0 3.0 0.00 0.27 0.27 36 1016.2
20260503203124 75 337 1.0 1.0 0.00 0.27 0.27 42 1020.4
20260503203024 75 274 1.0 2.0 0.00 0.27 0.27 42 1020.4
20260503202924 75 304 1.0 2.0 0.00 0.27 0.27 42 1020.4
20260503202824 80 324 1.0 2.0 0.00 0.27 0.27 36 1016.1
20260503202724 75 159 0.0 3.0 0.00 0.27 0.27 42 1020.4
20260503202624 80 61 1.0 2.0 0.00 0.27 0.27 35 1016.1
20260503202524 80 2 1.0 3.0 0.00 0.27 0.27 35 1016.1
20260503202424 75 336 1.0 2.0 0.00 0.27 0.27 42 1020.4
20260503202324 75 13 1.0 3.0 0.00 0.27 0.27 42 1020.4
20260503202224 80 39 1.0 3.0 0.00 0.27 0.27 36 1016.1
20260503202124 80 357 1.0 2.0 0.00 0.27 0.27 34 1016.2
20260503202024 80 293 1.0 5.0 0.00 0.27 0.27 33 1016.3
20260503201924 75 265 1.0 3.0 0.00 0.27 0.27 42 1020.4
20260503201754 80 337 1.0 2.0 0.00 0.27 0.27 34 1016.2
20260503201654 80 321 1.0 2.0 0.00 0.27 0.27 34 1016.3
20260503201554 75 329 0.0 2.0 0.00 0.27 0.27 42 1020.4
20260503201454 75 295 1.0 1.0 0.00 0.27 0.27 42 1020.4
20260503201354 75 354 1.0 2.0 0.00 0.27 0.27 42 1020.4
20260503201254 75 332 2.0 2.0 0.00 0.27 0.27 42 1020.4
20260503201154 79 307 2.0 5.0 0.00 0.27 0.27 35 1016.3
20260503201054 79 316 1.0 3.0 0.00 0.27 0.27 36 1016.3
20260503200954 79 333 1.0 2.0 0.00 0.27 0.27 36 1016.3
20260503200854 75 296 2.0 2.0 0.00 0.27 0.27 42 1020.4
20260503200754 75 262 2.0 5.0 0.00 0.27 0.27 42 1020.4
20260503200624 80 25 2.0 7.0 0.00 0.27 0.27 34 1016.3
20260503200524 75 25 1.0 3.0 0.00 0.27 0.27 42 1020.4
20260503200424 79 51 0.0 5.0 0.00 0.27 0.27 37 1016.3
20260503200324 79 337 0.0 2.0 0.00 0.27 0.27 37 1016.4
20260503200224 79 315 1.0 1.0 0.00 0.27 0.27 35 1016.3
20260503200124 75 286 0.0 2.0 0.00 0.27 0.27 42 1020.4
20260503200024 79 281 1.0 2.0 0.00 0.27 0.27 36 1016.4
20260503195854 79 45 2.0 6.0 0.00 0.27 0.27 37 1016.4
20260503195754 79 68 1.0 6.0 0.00 0.27 0.27 36 1016.5
20260503195654 75 7 1.0 2.0 0.00 0.27 0.27 42 1020.4
20260503195554 79 322 0.0 1.0 0.00 0.27 0.27 37 1016.5
20260503195454 79 106 1.0 1.0 0.00 0.27 0.27 34 1016.6
20260503195354 79 90 1.0 3.0 0.00 0.27 0.27 35 1016.5
20260503195254 75 36 1.0 5.0 0.00 0.27 0.27 42 1020.4
20260503195154 75 356 2.0 2.0 0.00 0.27 0.27 42 1020.4
20260503195054 75 23 2.0 7.0 0.00 0.27 0.27 42 1020.4
20260503194954 79 23 2.0 3.0 0.00 0.27 0.27 34 1016.7
20260503194854 79 235 1.0 3.0 0.00 0.27 0.27 35 1016.7
20260503194754 75 307 0.0 3.0 0.00 0.27 0.27 42 1020.4
20260503194654 79 349 1.0 1.0 0.00 0.27 0.27 35 1016.7
20260503194554 79 4 1.0 2.0 0.00 0.27 0.27 36 1016.7
20260503194454 75 73 1.0 6.0 0.00 0.27 0.27 42 1020.4
20260503194354 75 79 0.0 2.0 0.00 0.27 0.27 42 1020.4
20260503194254 75 223 2.0 2.0 0.00 0.27 0.27 42 1020.4
20260503194154 79 257 2.0 3.0 0.00 0.27 0.27 34 1016.9
20260503194054 79 266 1.0 5.0 0.00 0.27 0.27 34 1017.0
20260503193954 75 353 1.0 2.0 0.00 0.27 0.27 42 1020.4
20260503193854 79 326 1.0 3.0 0.00 0.27 0.27 36 1017.0
20260503193754 75 217 1.0 3.0 0.00 0.27 0.27 42 1020.4
20260503193624 75 301 1.0 2.0 0.00 0.27 0.27 42 1020.4
20260503193524 75 20 1.0 2.0 0.00 0.27 0.27 42 1020.4
20260503193424 79 33 0.0 2.0 0.00 0.27 0.27 38 1017.1
20260503193324 75 349 1.0 3.0 0.00 0.27 0.27 42 1020.4
20260503193224 78 121 1.0 5.0 0.00 0.27 0.27 38 1017.0
20260503193124 78 239 1.0 2.0 0.00 0.27 0.27 36 1017.2
20260503193024 78 148 1.0 6.0 0.00 0.27 0.27 36 1017.1
20260503192924 75 46 1.0 2.0 0.00 0.27 0.27 42 1020.4
20260503192824 78 70 1.0 3.0 0.00 0.27 0.27 39 1017.1
20260503192724 75 36 1.0 3.0 0.00 0.27 0.27 42 1020.4
20260503192624 75 112 1.0 2.0 0.00 0.27 0.27 42 1020.4
20260503192524 79 108 2.0 3.0 0.00 0.27 0.27 36 1017.1
20260503192424 75 110 1.0 5.0 0.00 0.27 0.27 42 1020.4
20260503192324 75 10 1.0 3.0 0.00 0.27 0.27 42 1020.4
20260503192224 79 46 1.0 3.0 0.00 0.27 0.27 36 1017.2
20260503192124 75 22 1.0 3.0 0.00 0.27 0.27 42 1020.4
20260503191954 75 47 1.0 6.0 0.00 0.27 0.27 42 1020.4
20260503191854 75 32 2.0 2.0 0.00 0.27 0.27 42 1020.4
20260503191754 75 103 1.0 5.0 0.00 0.27 0.27 42 1020.4
20260503191654 79 99 1.0 3.0 0.00 0.27 0.27 34 1017.3
20260503191554 79 19 2.0 3.0 0.00 0.27 0.27 35 1017.3
20260503191454 79 319 1.0 3.0 0.00 0.27 0.27 35 1017.3
20260503191354 75 40 1.0 3.0 0.00 0.27 0.27 42 1020.4
20260503191254 75 327 1.0 3.0 0.00 0.27 0.27 42 1020.4
20260503191154 79 324 1.0 3.0 0.00 0.27 0.27 36 1017.4
20260503191054 75 356 2.0 3.0 0.00 0.27 0.27 42 1020.4
20260503190954 75 108 1.0 3.0 0.00 0.27 0.27 42 1020.4
20260503190854 75 117 1.0 3.0 0.00 0.27 0.27 42 1020.4
20260503190754 79 124 1.0 3.0 0.00 0.27 0.27 36 1017.4
20260503190654 78 35 1.0 2.0 0.00 0.27 0.27 36 1017.5
20260503190554 75 7 0.0 3.0 0.00 0.27 0.27 42 1020.4
20260503190424 78 354 1.0 2.0 0.00 0.27 0.27 37 1017.5
20260503190324 75 359 0.0 2.0 0.00 0.27 0.27 42 1020.4
20260503190224 75 117 0.0 1.0 0.00 0.27 0.27 42 1020.4
20260503190124 78 133 1.0 2.0 0.00 0.27 0.27 36 1017.6
20260503190024 75 62 2.0 2.0 0.00 0.27 0.27 42 1020.4
20260503185924 78 96 1.0 5.0 0.00 0.27 0.27 38 1017.6
20260503185824 75 348 0.0 2.0 0.00 0.27 0.27 42 1020.4
20260503185724 75 26 1.0 1.0 0.00 0.27 0.27 42 1020.4
20260503185624 78 200 2.0 2.0 0.00 0.27 0.27 35 1017.6
20260503185524 75 228 1.0 3.0 0.00 0.27 0.27 42 1020.4
20260503185424 78 18 2.0 5.0 0.00 0.27 0.27 36 1017.6
20260503185324 78 70 2.0 5.0 0.00 0.27 0.27 37 1017.6
20260503185224 78 108 1.0 3.0 0.00 0.27 0.27 35 1017.7
20260503185124 78 50 1.0 7.0 0.00 0.27 0.27 35 1017.7
20260503185024 75 262 1.0 3.0 0.00 0.27 0.27 42 1020.4
20260503184924 78 214 2.0 2.0 0.00 0.27 0.27 34 1017.6
20260503184824 78 236 1.0 3.0 0.00 0.27 0.27 36 1017.7
20260503184724 78 250 1.0 3.0 0.00 0.27 0.27 38 1017.8
20260503184624 75 351 1.0 2.0 0.00 0.27 0.27 42 1020.4
20260503184524 75 357 2.0 2.0 0.00 0.27 0.27 42 1020.4
20260503184424 77 290 2.0 5.0 0.00 0.27 0.27 37 1017.8
20260503184324 77 329 1.0 3.0 0.00 0.27 0.27 36 1017.8
20260503184224 77 81 1.0 2.0 0.00 0.27 0.27 36 1017.8
20260503184124 77 335 1.0 2.0 0.00 0.27 0.27 36 1017.7
20260503184024 77 318 1.0 3.0 0.00 0.27 0.27 36 1017.8
20260503183924 77 3 1.0 3.0 0.00 0.27 0.27 35 1017.7
20260503183754 77 197 2.0 6.0 0.00 0.27 0.27 36 1017.9
20260503183654 75 105 1.0 6.0 0.00 0.27 0.27 42 1020.4
20260503183554 77 354 2.0 3.0 0.00 0.27 0.27 35 1017.9
20260503183454 77 46 2.0 6.0 0.00 0.27 0.27 36 1018.0
20260503183354 75 326 1.0 3.0 0.00 0.27 0.27 42 1020.4
20260503183254 77 280 2.0 3.0 0.00 0.27 0.27 37 1018.0
20260503183124 77 43 1.0 7.0 0.00 0.27 0.27 38 1018.0
20260503183024 75 356 1.0 3.0 0.00 0.27 0.27 42 1020.4
20260503182924 77 15 1.0 3.0 0.00 0.27 0.27 39 1017.9
20260503182824 77 198 1.0 3.0 0.00 0.27 0.27 40 1018.0
20260503182724 75 81 2.0 3.0 0.00 0.27 0.27 42 1020.4
20260503182624 75 117 2.0 6.0 0.00 0.27 0.27 42 1020.4
20260503182454 75 32 2.0 3.0 0.00 0.27 0.27 42 1020.4
20260503182354 78 69 2.0 3.0 0.00 0.27 0.27 35 1018.1
20260503182254 78 81 1.0 6.0 0.00 0.27 0.27 35 1018.2
20260503182154 75 329 1.0 5.0 0.00 0.27 0.27 42 1020.4
20260503182054 78 0 1.0 2.0 0.00 0.27 0.27 36 1018.2
20260503181954 77 4 0.0 2.0 0.00 0.27 0.27 36 1018.2
20260503181854 77 346 2.0 2.0 0.00 0.27 0.27 36 1018.2
20260503181754 75 35 0.0 6.0 0.00 0.27 0.27 42 1020.4
20260503181654 77 249 0.0 1.0 0.00 0.27 0.27 35 1018.2
20260503181554 77 323 1.0 0.0 0.00 0.27 0.27 35 1018.1
20260503181454 77 18 2.0 3.0 0.00 0.27 0.27 34 1018.2
20260503181354 75 319 1.0 3.0 0.00 0.27 0.27 42 1020.4
20260503181254 77 324 1.0 3.0 0.00 0.27 0.27 35 1018.1
20260503181154 77 337 1.0 3.0 0.00 0.27 0.27 36 1018.1
20260503181054 75 6 1.0 3.0 0.00 0.27 0.27 42 1020.4
20260503180954 77 33 1.0 2.0 0.00 0.27 0.27 34 1018.1
20260503180854 75 275 2.0 5.0 0.00 0.27 0.27 42 1020.4
20260503180754 75 39 2.0 5.0 0.00 0.27 0.27 42 1020.4
20260503180654 75 41 1.0 7.0 0.00 0.27 0.27 42 1020.4
20260503180554 75 261 2.0 3.0 0.00 0.27 0.27 42 1020.4
20260503180454 77 352 2.0 3.0 0.00 0.27 0.27 36 1018.2
20260503180354 75 105 1.0 5.0 0.00 0.27 0.27 42 1020.4
20260503180254 75 185 0.0 3.0 0.00 0.27 0.27 42 1020.4
20260503180154 76 23 1.0 1.0 0.00 0.27 0.27 34 1018.2
20260503180054 75 40 1.0 3.0 0.00 0.27 0.27 42 1020.4
20260503175954 76 48 1.0 5.0 0.00 0.27 0.27 33 1018.3
20260503175854 76 325 1.0 3.0 0.00 0.27 0.27 33 1018.1
20260503175754 76 9 2.0 2.0 0.00 0.27 0.27 33 1018.1
20260503175654 76 8 2.0 5.0 0.00 0.27 0.27 34 1018.1
20260503175554 76 294 2.0 5.0 0.00 0.27 0.27 34 1018.2
20260503175424 75 255 3.0 3.0 0.00 0.27 0.27 42 1020.4
20260503175324 76 267 1.0 9.0 0.00 0.27 0.27 36 1018.2
20260503175224 76 271 2.0 3.0 0.00 0.27 0.27 35 1018.2
20260503175054 75 16 2.0 3.0 0.00 0.27 0.27 42 1020.4
20260503174954 76 24 1.0 3.0 0.00 0.27 0.27 38 1018.0
20260503174854 75 187 2.0 5.0 0.00 0.27 0.27 42 1020.4
20260503174754 75 69 2.0 5.0 0.00 0.27 0.27 42 1020.4
20260503174654 75 10 1.0 3.0 0.00 0.27 0.27 42 1020.4
20260503174554 75 303 1.0 3.0 0.00 0.27 0.27 42 1020.4
20260503174454 76 0 2.0 5.0 0.00 0.27 0.27 34 1018.2
20260503174354 75 23 1.0 3.0 0.00 0.27 0.27 42 1020.4
20260503174254 76 312 1.0 6.0 0.00 0.27 0.27 34 1018.2
20260503174154 76 16 2.0 3.0 0.00 0.27 0.27 34 1018.1
20260503174054 75 248 1.0 3.0 0.00 0.27 0.27 42 1020.4
20260503173954 75 309 2.0 3.0 0.00 0.27 0.27 42 1020.4
20260503173854 76 306 1.0 5.0 0.00 0.27 0.27 35 1018.1
20260503173754 75 24 1.0 2.0 0.00 0.27 0.27 42 1020.4
20260503173654 76 329 1.0 2.0 0.00 0.27 0.27 34 1018.3
20260503173554 75 37 2.0 3.0 0.00 0.27 0.27 42 1020.4
20260503173454 75 37 1.0 7.0 0.00 0.27 0.27 42 1020.4
20260503173354 75 337 0.0 2.0 0.00 0.27 0.27 42 1020.4
20260503173254 76 251 2.0 2.0 0.00 0.27 0.27 35 1018.3
20260503173154 75 7 1.0 3.0 0.00 0.27 0.27 42 1020.4
20260503173054 75 356 2.0 3.0 0.00 0.27 0.27 42 1020.4
20260503172954 76 53 1.0 6.0 0.00 0.27 0.27 35 1018.3
20260503172854 76 273 2.0 3.0 0.00 0.27 0.27 36 1018.4
20260503172754 75 80 0.0 6.0 0.00 0.27 0.27 42 1020.4
20260503172654 75 325 1.0 1.0 0.00 0.27 0.27 42 1020.4
20260503172554 75 117 1.0 3.0 0.00 0.27 0.27 42 1020.4
20260503172454 75 283 2.0 2.0 0.00 0.27 0.27 35 1018.3
20260503172354 75 306 1.0 6.0 0.00 0.27 0.27 42 1020.4
20260503172254 75 284 1.0 3.0 0.00 0.27 0.27 42 1020.4
20260503172154 75 35 2.0 3.0 0.00 0.27 0.27 35 1018.4
20260503172054 75 25 2.0 6.0 0.00 0.27 0.27 42 1020.4
20260503171954 75 262 2.0 5.0 0.00 0.27 0.27 36 1018.5
20260503171854 75 206 2.0 3.0 0.00 0.27 0.27 35 1018.5
20260503171754 75 92 2.0 5.0 0.00 0.27 0.27 42 1020.4
20260503171654 76 337 3.0 7.0 0.00 0.27 0.27 35 1018.6
20260503171554 76 27 3.0 3.0 0.00 0.27 0.27 35 1018.6
20260503171454 75 10 3.0 7.0 0.00 0.27 0.27 42 1020.4
20260503171354 76 70 2.0 7.0 0.00 0.27 0.27 36 1018.6
20260503171254 75 14 1.0 5.0 0.00 0.27 0.27 42 1020.4
20260503171154 75 329 1.0 3.0 0.00 0.27 0.27 42 1020.4
20260503171054 75 313 2.0 2.0 0.00 0.27 0.27 35 1018.6
20260503170954 75 334 2.0 3.0 0.00 0.27 0.27 35 1018.6
20260503170854 75 57 2.0 3.0 0.00 0.27 0.27 42 1020.4
20260503170754 75 126 2.0 3.0 0.00 0.27 0.27 35 1018.7
20260503170654 75 349 2.0 7.0 0.00 0.27 0.27 35 1018.7
20260503170554 75 335 1.0 5.0 0.00 0.27 0.27 35 1018.7
20260503170454 75 294 1.0 2.0 0.00 0.27 0.27 42 1020.4
20260503170354 75 302 3.0 3.0 0.00 0.27 0.27 35 1018.7
20260503170224 75 278 1.0 6.0 0.00 0.27 0.27 42 1020.4
20260503170124 75 125 2.0 5.0 0.00 0.27 0.27 42 1020.4
20260503160153 74 87 2.0 7.0 0.00 0.27 0.27 37 1019.5
20260503150923 75 280 1.0 2.0 0.00 0.27 0.27 42 1020.4
20260503150823 75 306 2.0 3.0 0.00 0.27 0.27 42 1020.4
20260503150723 72 291 2.0 3.0 0.00 0.27 0.27 46 1019.6
20260503150623 75 78 1.0 3.0 0.00 0.27 0.27 42 1020.4
20260503150523 72 294 1.0 3.0 0.00 0.27 0.27 48 1019.8
20260503150423 75 93 1.0 2.0 0.00 0.27 0.27 42 1020.4
20260503150323 72 25 2.0 3.0 0.00 0.27 0.27 47 1019.7
20260503150223 75 27 1.0 6.0 0.00 0.27 0.27 42 1020.4
20260503150123 75 301 0.0 3.0 0.00 0.27 0.27 42 1020.4
20260503140253 75 248 1.0 2.0 0.00 0.27 0.27 42 1020.4
20260503140153 75 288 1.0 3.0 0.00 0.27 0.27 42 1020.4
20260503131353 63 290 0.0 2.0 0.00 0.27 0.27 56 1018.8
20260503131253 75 301 0.0 2.0 0.00 0.27 0.27 42 1020.4
20260503131123 75 255 0.0 1.0 0.00 0.27 0.27 42 1020.4
20260503131023 63 149 0.0 1.0 0.00 0.27 0.27 56 1018.7
20260503130923 63 2 1.0 2.0 0.00 0.27 0.27 56 1018.7
20260503130823 75 296 0.0 2.0 0.00 0.27 0.27 42 1020.4
20260503130723 63 252 0.0 1.0 0.00 0.27 0.27 56 1018.7
20260503130623 63 229 0.0 0.0 0.00 0.27 0.27 57 1018.6
20260503130523 62 229 0.0 0.0 0.00 0.27 0.27 56 1018.6
20260503130423 75 231 1.0 1.0 0.00 0.27 0.27 42 1020.4
20260503130323 75 265 0.0 3.0 0.00 0.27 0.27 42 1020.4
20260503130223 75 195 1.0 3.0 0.00 0.27 0.27 42 1020.4
20260503130123 75 220 1.0 3.0 0.00 0.27 0.27 42 1020.4
20260503120123 54 289 0.0 0.0 0.00 0.27 0.27 70 1017.6
20260503110823 53 268 0.0 0.0 0.00 0.27 0.27 72 1017.0
20260503110723 75 268 0.0 0.0 0.00 0.27 0.27 42 1020.4
20260503110623 53 268 1.0 1.0 0.00 0.27 0.27 72 1017.0
20260503110523 53 262 0.0 1.0 0.00 0.27 0.27 72 1017.0
20260503110423 53 283 0.0 1.0 0.00 0.27 0.27 72 1017.0
20260503110323 75 290 0.0 0.0 0.00 0.27 0.27 42 1020.4
20260503110223 53 290 0.0 0.0 0.00 0.27 0.27 72 1017.0
20260503110123 53 290 0.0 0.0 0.00 0.27 0.27 72 1017.0
20260503100252 52 282 0.0 0.0 0.00 0.27 0.27 77 1016.4
20260503100152 75 282 0.0 0.0 0.00 0.27 0.27 42 1020.4
20260503090452 53 258 0.0 0.0 0.00 0.27 0.27 75 1016.1
20260503090352 75 258 0.0 0.0 0.00 0.27 0.27 42 1020.4
20260503090252 53 258 0.0 0.0 0.00 0.27 0.27 74 1016.1
20260503090152 53 258 0.0 0.0 0.00 0.27 0.27 75 1016.1
20260503081552 54 201 0.0 0.0 0.00 0.27 0.27 73 1016.0
20260503081452 54 201 0.0 0.0 0.00 0.27 0.27 74 1016.0
20260503081352 75 200 0.0 0.0 0.00 0.27 0.27 42 1020.4
20260503081252 75 200 0.0 0.0 0.00 0.27 0.27 42 1020.4
20260503081152 75 200 0.0 0.0 0.00 0.27 0.27 42 1020.4
20260503081022 75 200 0.0 0.0 0.00 0.27 0.27 42 1020.4
20260503080922 54 201 0.0 0.0 0.00 0.27 0.27 73 1016.0
20260503080822 75 200 0.0 0.0 0.00 0.27 0.27 42 1020.4
20260503080722 54 201 0.0 0.0 0.00 0.27 0.27 73 1015.9
20260503080552 75 200 0.0 0.0 0.00 0.27 0.27 42 1020.4
20260503080452 53 201 0.0 0.0 0.00 0.27 0.27 73 1015.8
20260503080352 53 201 0.0 0.0 0.00 0.27 0.27 74 1015.8
20260503080252 75 200 0.0 0.0 0.00 0.27 0.27 42 1020.4
20260503080152 53 201 0.0 0.0 0.00 0.27 0.27 74 1015.7
20260503072922 54 224 0.0 0.0 0.00 0.27 0.27 72 1015.6
20260503072822 54 224 0.0 0.0 0.00 0.27 0.27 72 1015.7
20260503072722 75 223 0.0 0.0 0.00 0.27 0.27 42 1020.4
20260503072622 75 223 0.0 0.0 0.00 0.27 0.27 42 1020.4
20260503072522 53 224 0.0 1.0 0.00 0.27 0.27 74 1015.6
20260503072422 75 247 0.0 1.0 0.00 0.27 0.27 42 1020.4
20260503072322 53 257 0.0 1.0 0.00 0.27 0.27 75 1015.5
20260503072222 53 241 0.0 0.0 0.00 0.27 0.27 75 1015.5
20260503072122 53 241 0.0 0.0 0.00 0.27 0.27 75 1015.5
20260503072022 75 241 0.0 0.0 0.00 0.27 0.27 42 1020.4
20260503071922 53 241 0.0 0.0 0.00 0.27 0.27 75 1015.5
20260503071822 75 241 0.0 0.0 0.00 0.27 0.27 42 1020.4
20260503071722 75 241 0.0 0.0 0.00 0.27 0.27 42 1020.4
20260503071622 75 241 0.0 0.0 0.00 0.27 0.27 42 1020.4
20260503071522 53 243 0.0 1.0 0.00 0.27 0.27 76 1015.4
20260503071422 75 262 0.0 0.0 0.00 0.27 0.27 42 1020.4
20260503071252 75 262 0.0 0.0 0.00 0.27 0.27 42 1020.4
20260503071152 53 261 0.0 0.0 0.00 0.27 0.27 75 1015.4
20260503071052 53 261 0.0 0.0 0.00 0.27 0.27 74 1015.5
20260503070952 75 262 0.0 0.0 0.00 0.27 0.27 42 1020.4
20260503070852 53 261 0.0 0.0 0.00 0.27 0.27 74 1015.5
20260503070722 75 262 0.0 0.0 0.00 0.27 0.27 42 1020.4
20260503070622 75 262 0.0 0.0 0.00 0.27 0.27 42 1020.4
20260503070522 53 261 0.0 0.0 0.00 0.27 0.27 74 1015.5
20260503070422 75 262 0.0 0.0 0.00 0.27 0.27 42 1020.4
20260503070322 75 262 0.0 0.0 0.00 0.27 0.27 42 1020.4
20260503070222 75 262 0.0 0.0 0.00 0.27 0.27 42 1020.4
20260503070122 75 262 0.0 0.0 0.00 0.27 0.27 42 1020.4
20260503060252 57 319 0.0 0.0 0.00 0.27 0.27 66 1015.5
20260503060152 75 319 0.0 0.0 0.00 0.27 0.27 42 1020.4
20260503055122 57 319 0.0 0.0 0.00 0.27 0.27 66 1015.5
20260503054952 57 319 0.0 0.0 0.00 0.27 0.27 66 1015.5
20260503054852 57 319 0.0 0.0 0.00 0.27 0.27 66 1015.5
20260503054752 75 317 1.0 1.0 0.00 0.27 0.27 42 1020.4
20260503054652 57 281 0.0 1.0 0.00 0.27 0.27 66 1015.4
20260503054552 57 300 0.0 0.0 0.00 0.27 0.27 66 1015.4
20260503054422 57 300 0.0 0.0 0.00 0.27 0.27 66 1015.4
20260503054322 75 300 0.0 0.0 0.00 0.27 0.27 42 1020.4
20260503054222 57 300 0.0 0.0 0.00 0.27 0.27 65 1015.4
20260503054122 57 300 0.0 0.0 0.00 0.27 0.27 66 1015.4
20260503054022 75 300 0.0 0.0 0.00 0.27 0.27 42 1020.4
20260503053922 58 300 0.0 0.0 0.00 0.27 0.27 65 1015.4
20260503053822 75 300 0.0 0.0 0.00 0.27 0.27 42 1020.4
20260503053652 75 300 0.0 0.0 0.00 0.27 0.27 42 1020.4
20260503053522 58 300 0.0 0.0 0.00 0.27 0.27 65 1015.4
20260503053422 75 300 0.0 1.0 0.00 0.27 0.27 42 1020.4
20260503053322 58 286 0.0 1.0 0.00 0.27 0.27 65 1015.5
20260503053152 75 270 0.0 1.0 0.00 0.27 0.27 42 1020.4
20260503053052 58 290 0.0 0.0 0.00 0.27 0.27 65 1015.5
20260503052952 58 290 0.0 1.0 0.00 0.27 0.27 65 1015.4
20260503052852 75 285 0.0 1.0 0.00 0.27 0.27 42 1020.4
20260503052752 75 283 0.0 0.0 0.00 0.27 0.27 42 1020.4
20260503052652 58 284 0.0 0.0 0.00 0.27 0.27 65 1015.5
20260503052552 75 283 0.0 0.0 0.00 0.27 0.27 42 1020.4
20260503052452 75 283 0.0 0.0 0.00 0.27 0.27 42 1020.4
20260503052322 75 283 0.0 0.0 0.00 0.27 0.27 42 1020.4
20260503052222 58 311 0.0 1.0 0.00 0.27 0.27 64 1015.5
20260503052122 75 301 0.0 0.0 0.00 0.27 0.27 42 1020.4
20260503052022 75 303 1.0 1.0 0.00 0.27 0.27 42 1020.4
20260503051922 58 304 0.0 1.0 0.00 0.27 0.27 64 1015.5
20260503051752 58 243 1.0 1.0 0.00 0.27 0.27 64 1015.5
20260503051652 58 275 0.0 1.0 0.00 0.27 0.27 64 1015.5
20260503051552 75 300 0.0 0.0 0.00 0.27 0.27 42 1020.4
20260503051452 75 302 0.0 0.0 0.00 0.27 0.27 42 1020.4
20260503051322 75 308 0.0 1.0 0.00 0.27 0.27 42 1020.4
20260503051222 75 300 0.0 1.0 0.00 0.27 0.27 42 1020.4
20260503051052 58 300 0.0 0.0 0.00 0.27 0.27 65 1015.4
20260503050952 75 288 0.0 0.0 0.00 0.27 0.27 42 1020.4
20260503050852 58 290 0.0 1.0 0.00 0.27 0.27 64 1015.4
20260503050752 75 304 0.0 0.0 0.00 0.27 0.27 42 1020.4
20260503050652 58 305 0.0 0.0 0.00 0.27 0.27 65 1015.4
20260503050552 75 304 0.0 0.0 0.00 0.27 0.27 42 1020.4
20260503050422 58 295 0.0 0.0 0.00 0.27 0.27 64 1015.4
20260503050322 58 282 0.0 0.0 0.00 0.27 0.27 64 1015.4
20260503050222 75 283 0.0 0.0 0.00 0.27 0.27 42 1020.4
20260503050122 75 282 1.0 1.0 0.00 0.27 0.27 42 1020.4
20260503050022 58 270 0.0 1.0 0.00 0.27 0.00 64 1015.3
20260503045922 75 295 1.0 1.0 0.00 0.27 0.27 42 1020.4
20260503045822 58 270 1.0 1.0 0.00 0.27 0.27 64 1015.3
20260503045652 58 345 1.0 1.0 0.00 0.27 0.27 63 1015.3
20260503045552 58 315 0.0 1.0 0.00 0.27 0.27 64 1015.3
20260503045452 58 266 0.0 1.0 0.00 0.27 0.27 63 1015.3
20260503045352 75 265 1.0 1.0 0.00 0.27 0.27 42 1020.4
20260503045252 75 270 0.0 1.0 0.00 0.27 0.27 42 1020.4
20260503045122 58 297 1.0 1.0 0.00 0.27 0.27 63 1015.4
20260503045022 75 270 0.0 1.0 0.00 0.27 0.27 42 1020.4
20260503044922 75 253 0.0 1.0 0.00 0.27 0.27 42 1020.4
20260503044822 58 244 0.0 0.0 0.00 0.27 0.27 63 1015.4
20260503044722 58 252 0.0 1.0 0.00 0.27 0.27 64 1015.4
20260503044622 75 296 0.0 1.0 0.00 0.27 0.27 42 1020.4
20260503044522 59 295 0.0 1.0 0.00 0.27 0.27 64 1015.4
20260503044352 59 303 0.0 1.0 0.00 0.27 0.27 63 1015.4
20260503044252 59 300 0.0 1.0 0.00 0.27 0.27 63 1015.4
20260503044152 75 290 1.0 1.0 0.00 0.27 0.27 42 1020.4
20260503044022 75 295 0.0 1.0 0.00 0.27 0.27 42 1020.4
20260503043922 59 311 0.0 1.0 0.00 0.27 0.27 63 1015.3
20260503043822 75 302 0.0 1.0 0.00 0.27 0.27 42 1020.4
20260503043722 59 286 1.0 1.0 0.00 0.27 0.27 62 1015.3
20260503043622 75 292 0.0 2.0 0.00 0.27 0.27 42 1020.4
20260503043452 59 282 1.0 2.0 0.00 0.27 0.27 62 1015.2
20260503043352 59 286 0.0 2.0 0.00 0.27 0.27 62 1015.2
20260503043252 59 284 0.0 1.0 0.00 0.27 0.27 62 1015.2
20260503043152 59 292 0.0 1.0 0.00 0.27 0.27 63 1015.2
20260503043052 75 309 0.0 2.0 0.00 0.27 0.27 42 1020.4
20260503042952 59 301 0.0 2.0 0.00 0.27 0.27 63 1015.1
20260503042822 75 309 0.0 1.0 0.00 0.27 0.27 42 1020.4
20260503042722 58 306 0.0 1.0 0.00 0.27 0.27 62 1015.2
20260503042622 75 297 1.0 1.0 0.00 0.27 0.27 42 1020.4
20260503042522 75 285 0.0 1.0 0.00 0.27 0.27 42 1020.4
20260503042422 75 296 1.0 2.0 0.00 0.27 0.27 42 1020.4
20260503042252 75 288 1.0 2.0 0.00 0.27 0.27 42 1020.4
20260503042152 58 274 1.0 2.0 0.00 0.27 0.27 63 1015.0
20260503042022 75 270 0.0 2.0 0.00 0.27 0.27 42 1020.4
20260503041922 58 265 0.0 1.0 0.00 0.27 0.27 64 1015.0
20260503041822 75 288 1.0 1.0 0.00 0.27 0.27 42 1020.4
20260503041722 75 283 0.0 1.0 0.00 0.27 0.27 42 1020.4
20260503041622 58 280 0.0 1.0 0.00 0.27 0.27 64 1014.9
20260503041522 58 289 0.0 1.0 0.00 0.27 0.27 65 1014.9
20260503041352 75 286 0.0 2.0 0.00 0.27 0.27 42 1020.4
20260503041252 58 275 0.0 1.0 0.00 0.27 0.27 65 1014.9
20260503041152 58 270 0.0 1.0 0.00 0.27 0.27 65 1014.9
20260503041052 58 268 0.0 1.0 0.00 0.27 0.27 65 1014.8
20260503040952 58 296 0.0 0.0 0.00 0.27 0.27 65 1014.8
20260503040852 75 284 0.0 1.0 0.00 0.27 0.27 42 1020.4
20260503040722 58 281 1.0 2.0 0.00 0.27 0.27 66 1014.8
20260503040622 58 278 0.0 2.0 0.00 0.27 0.27 66 1014.8
20260503040522 75 282 0.0 1.0 0.00 0.27 0.27 42 1020.4
20260503040422 58 287 1.0 1.0 0.00 0.27 0.27 67 1014.7
20260503040322 58 274 0.0 1.0 0.00 0.27 0.27 67 1014.7
20260503040222 75 282 0.0 2.0 0.00 0.27 0.27 42 1020.4
20260503040052 58 279 0.0 0.0 0.00 0.27 0.27 67 1014.7
20260503035952 75 279 0.0 0.0 0.00 0.27 0.27 42 1020.4
20260503035852 58 279 0.0 0.0 0.00 0.27 0.27 68 1014.6
20260503035752 58 279 0.0 0.0 0.00 0.27 0.27 68 1014.6
20260503035622 75 279 0.0 0.0 0.00 0.27 0.27 42 1020.4
20260503035522 75 279 0.0 0.0 0.00 0.27 0.27 42 1020.4
20260503035422 58 279 0.0 1.0 0.00 0.27 0.27 69 1014.5
20260503035252 58 233 0.0 0.0 0.00 0.27 0.27 68 1014.5
20260503035152 75 233 0.0 0.0 0.00 0.27 0.27 42 1020.4
20260503035022 75 233 0.0 1.0 0.00 0.27 0.27 42 1020.4
20260503034922 58 246 0.0 1.0 0.00 0.27 0.27 68 1014.6
20260503034822 75 255 0.0 1.0 0.00 0.27 0.27 42 1020.4
20260503034722 58 250 0.0 0.0 0.00 0.27 0.27 68 1014.6
20260503034622 58 250 0.0 0.0 0.00 0.27 0.27 68 1014.6
20260503034452 58 250 0.0 0.0 0.00 0.27 0.27 67 1014.6
20260503034352 75 253 0.0 0.0 0.00 0.27 0.27 42 1020.4
20260503034251 58 250 0.0 0.0 0.00 0.27 0.27 67 1014.6
20260503034151 75 276 0.0 1.0 0.00 0.27 0.27 42 1020.4
20260503034052 75 296 0.0 1.0 0.00 0.27 0.27 42 1020.4
20260503033921 58 291 0.0 1.0 0.00 0.27 0.27 66 1014.6
20260503033822 58 289 0.0 1.0 0.00 0.27 0.27 66 1014.6
20260503033722 58 274 0.0 1.0 0.00 0.27 0.27 66 1014.6
20260503033622 75 272 0.0 1.0 0.00 0.27 0.27 42 1020.4
20260503033522 75 282 0.0 1.0 0.00 0.27 0.27 42 1020.4
20260503033352 75 279 1.0 2.0 0.00 0.27 0.27 42 1020.4
20260503033252 75 279 1.0 2.0 0.00 0.27 0.27 42 1020.4
20260503033152 58 269 0.0 2.0 0.00 0.27 0.27 65 1014.6
20260503033051 58 279 0.0 1.0 0.00 0.27 0.27 66 1014.5
20260503032951 75 281 0.0 1.0 0.00 0.27 0.27 42 1020.4
20260503032852 58 276 0.0 1.0 0.00 0.27 0.27 66 1014.5
20260503032752 75 267 0.0 1.0 0.00 0.27 0.27 42 1020.4
20260503032622 58 274 0.0 1.0 0.00 0.27 0.27 66 1014.5
20260503032522 58 278 0.0 1.0 0.00 0.27 0.27 66 1014.5
20260503032421 75 294 0.0 1.0 0.00 0.27 0.27 42 1020.4
20260503032321 59 305 0.0 0.0 0.00 0.27 0.27 67 1014.5
20260503032152 59 320 0.0 0.0 0.00 0.27 0.27 66 1014.5
20260503032052 75 296 0.0 0.0 0.00 0.27 0.27 42 1020.4
20260503031952 75 292 0.0 0.0 0.00 0.27 0.27 42 1020.4
20260503031821 59 335 0.0 0.0 0.00 0.27 0.27 65 1014.6
20260503031722 59 353 0.0 0.0 0.00 0.27 0.27 66 1014.5
20260503031621 75 353 0.0 0.0 0.00 0.27 0.27 42 1020.4
20260503031521 75 353 0.0 0.0 0.00 0.27 0.27 42 1020.4
20260503031352 59 353 0.0 0.0 0.00 0.27 0.27 65 1014.5
20260503031251 59 353 0.0 0.0 0.00 0.27 0.27 64 1014.6
20260503031151 75 353 0.0 0.0 0.00 0.27 0.27 42 1020.4
20260503031052 59 353 0.0 0.0 0.00 0.27 0.27 64 1014.6
20260503030951 75 280 0.0 0.0 0.00 0.27 0.27 42 1020.4
20260503030852 60 279 0.0 0.0 0.00 0.27 0.27 64 1014.6
20260503030751 60 279 0.0 0.0 0.00 0.27 0.27 64 1014.6
20260503030622 60 279 0.0 0.0 0.00 0.27 0.27 63 1014.6
20260503030522 60 279 0.0 0.0 0.00 0.27 0.27 63 1014.6
20260503030422 75 279 0.0 0.0 0.00 0.27 0.27 42 1020.4
20260503030321 60 279 0.0 0.0 0.00 0.27 0.27 62 1014.6
20260503030221 75 279 0.0 0.0 0.00 0.27 0.27 42 1020.4
20260503030052 60 318 0.0 0.0 0.00 0.27 0.27 62 1014.6
20260503025952 75 317 0.0 0.0 0.00 0.27 0.27 42 1020.4
20260503025851 60 318 0.0 0.0 0.00 0.27 0.27 62 1014.6
20260503025751 60 318 0.0 0.0 0.00 0.27 0.27 62 1014.6
20260503025652 75 317 0.0 0.0 0.00 0.27 0.27 42 1020.4
20260503025521 60 318 0.0 0.0 0.00 0.27 0.27 62 1014.6
20260503025421 60 318 0.0 0.0 0.00 0.27 0.27 62 1014.6
20260503025321 60 318 0.0 0.0 0.00 0.27 0.27 60 1014.7
20260503025221 60 318 0.0 0.0 0.00 0.27 0.27 60 1014.6
20260503025121 75 317 0.0 0.0 0.00 0.27 0.27 42 1020.4
20260503025021 75 317 0.0 0.0 0.00 0.27 0.27 42 1020.4
20260503024852 75 317 0.0 0.0 0.00 0.27 0.27 42 1020.4
20260503024752 60 318 0.0 0.0 0.00 0.27 0.27 61 1014.5
20260503024652 75 317 0.0 0.0 0.00 0.27 0.27 42 1020.4
20260503024551 61 318 0.0 0.0 0.00 0.27 0.27 60 1014.5
20260503024451 75 317 0.0 0.0 0.00 0.27 0.27 42 1020.4